Home > Weather > Makassar > Past weeks

Flag for Indonesia Past Weather in Makassar, South Sulawesi, Indonesia — Yesterday and Last 2 Weeks

Now
90 °F

Passing clouds.


Feels Like: 103 °F
Forecast: 77 / 89 °F
Wind: 3 mph from Southeast

Location: Ujung Pandang / Hasanuddin

Current Time: Jun 27, 2016 at 10:29:46 AM

Latest Report: Jun 27, 2016 at 10:00 AM


Visibility: N/A

Pressure: 29.83 "Hg

Humidity: 67%

Dew Point: 77 °F

Location of MakassarLocation

Past Weather in Makassar — Graph

°F

Makassar Temperature Yesterday

Maximum temperature yesterday: 88 °F (at 11:00 AM)
Minimum temperature yesterday: 73 °F (at 5:00 AM)
Average temperature yesterday: 80 °F

High & Low Weather Summary for the Past Weeks

 TemperatureHumidityPressure
High93 °F (Jun 12, 12:30 PM)100% (Jun 13, 3:00 AM)29.89 "Hg (Jun 13, 3:00 AM)
Low72 °F (Jun 23, 5:30 AM)52% (Jun 21, 2:00 PM)29.71 "Hg (Jun 17, 2:30 PM)
Average81 °F87%29.82 "Hg
* Reported Jun 12 9:00 AM — Jun 27 9:00 AM, Makassar, Weather by CustomWeather, © 2016

Note: Actual official high and low records may vary slightly from our data, if they occured in-between our weather recording intervals... More about our weather records

Advertising

Makassar Weather History for the Previous 24 Hours

Scroll right to see more
 ConditionsComfort  
Time TempWeatherWind HumidityBarometerVisibility
9:00 AM
Mon, Jun 27
84 °FPassing clouds.3 mph79%29.83 "HgN/A
8:30 AM81 °FPassing clouds.3 mph94%29.83 "HgN/A
8:00 AM79 °FPassing clouds.3 mph94%29.83 "HgN/A
7:30 AM79 °FPassing clouds.3 mph94%29.83 "HgN/A
7:00 AM77 °FPassing clouds.3 mph100%29.83 "Hg5 mi
6:30 AM77 °FPassing clouds.3 mph100%29.83 "Hg5 mi
6:00 AM77 °FPassing clouds.2 mph100%29.83 "Hg5 mi
5:30 AM77 °FPassing clouds.1 mph100%29.83 "Hg5 mi
5:00 AM77 °FPassing clouds.2 mph100%29.80 "Hg5 mi
4:30 AM77 °FPassing clouds.2 mph100%29.83 "Hg5 mi
4:00 AM77 °FPassing clouds.No wind100%29.80 "Hg5 mi
3:30 AM77 °FPassing clouds.1 mph100%29.80 "Hg5 mi
3:00 AM77 °FPassing clouds.1 mph100%29.83 "Hg5 mi
2:30 AM77 °FPassing clouds.2 mph100%29.83 "Hg5 mi
2:00 AM77 °FPassing clouds.1 mph100%29.83 "Hg5 mi
1:30 AM77 °FPassing clouds.1 mph100%29.83 "Hg5 mi
1:00 AM77 °FPassing clouds.2 mph100%29.86 "Hg5 mi
12:30 AM77 °FPassing clouds.2 mph100%29.86 "Hg5 mi
12:00 AM77 °FPassing clouds.2 mph100%29.86 "Hg5 mi
11:30 PM
Sun, Jun 26
77 °FPassing clouds.5 mph100%29.86 "Hg5 mi
10:00 PM77 °FPassing clouds.3 mph100%29.86 "Hg5 mi
9:30 PM77 °FPassing clouds.2 mph100%29.89 "Hg5 mi
9:00 PM77 °FPassing clouds.3 mph100%29.89 "Hg5 mi
8:30 PM77 °FPassing clouds.3 mph100%29.89 "Hg4 mi
8:00 PM77 °FPassing clouds.5 mph100%29.86 "Hg4 mi
7:30 PM77 °FLight rain. Passing clouds.3 mph100%29.86 "Hg4 mi
7:00 PM77 °FLight rain. Passing clouds.3 mph100%29.86 "Hg4 mi
6:30 PM81 °FLight rain. Passing clouds.3 mph94%N/A4 mi
6:00 PM81 °FLight rain. Passing clouds.2 mph94%29.83 "Hg4 mi
5:30 PM82 °FPartly sunny.3 mph89%29.83 "Hg5 mi
5:00 PM84 °FScattered clouds.5 mph79%29.80 "Hg5 mi
4:30 PM86 °FScattered clouds.5 mph75%29.80 "Hg5 mi
4:00 PM86 °FScattered clouds.6 mph75%29.80 "Hg5 mi
3:30 PM88 °FScattered clouds.3 mph70%29.80 "Hg5 mi
3:00 PM88 °FScattered clouds.3 mph66%29.80 "Hg5 mi
2:30 PM88 °FPassing clouds.5 mph70%29.80 "HgN/A
2:00 PM88 °FPassing clouds.5 mph70%29.80 "HgN/A
1:30 PM86 °FPassing clouds.6 mph70%29.83 "HgN/A
1:00 PM86 °FPassing clouds.6 mph70%29.83 "HgN/A
12:30 PM86 °FPassing clouds.5 mph70%29.83 "HgN/A
12:00 PM86 °FPassing clouds.3 mph70%29.86 "HgN/A
11:30 AM86 °FPassing clouds.3 mph70%29.86 "HgN/A
11:00 AM88 °FPassing clouds.3 mph66%29.86 "HgN/A
10:30 AM86 °FPassing clouds.No wind70%29.89 "HgN/A
10:00 AM86 °FPassing clouds.1 mph70%29.89 "HgN/A
Weather by CustomWeather, © 2016

See weather overviewHow to use our weather pages